This demonstration page uses our WeatherBlox Daily Observations layout. Learn more.

Left ArrowRight Arrow

38.20091, -84.87328

Hourly Observations for July 19, 2018

Temp ( °F °C ) Dew Point ( °F °C ) Humidity (%) Winds ( mph kmh ) Pressure ( in mb ) Visibility ( mi km ) Precip ( " mm )
12:53 am 00:53 Clear 67 19.4 62 16.7 84 84 Calm 30.00 1016 10 16 0.00 0.00
1:53 am 01:53 Mostly Clear 66 18.9 61 16.1 84 84 Calm 30.00 1016 10 16 0.00 0.00
2:53 am 02:53 Clear 66 18.9 60 15.6 81 81 Calm 29.99 1016 10 16 0.00 0.00
3:53 am 03:53 Clear 64 17.8 59 15 84 84 Calm 29.98 1015 10 16 0.00 0.00
4:53 am 04:53 Clear 63 17.2 59 15 87 87 Calm 29.98 1015 10 16 0.00 0.00
5:53 am 05:53 Clear 62 16.7 58 14.4 86 86 Calm 29.99 1016 10 16 0.00 0.00
6:53 am 06:53 Sunny 62 16.7 58 14.4 86 86 Calm 30.00 1016 10 16 0.00 0.00
7:53 am 07:53 Sunny 68 20 60 15.6 76 76 Calm 30.01 1016 10 16 0.00 0.00
8:53 am 08:53 Sunny 72 22.2 60 15.6 66 66 ENE 3 6 30.01 1016 10 16 0.00 0.00
9:53 am 09:53 Sunny 77 25 61 16.1 58 58 E 5 7 30.01 1016 10 16 0.00 0.00
10:53 am 10:53 Sunny 81 27.2 61 16.1 51 51 VRB 6 9 30.01 1016 10 16 0.00 0.00
11:53 am 11:53 Sunny 82 27.8 57 13.9 42 42 E 13 20 30.00 1016 10 16 0.00 0.00
12:53 pm 12:53 Sunny 83 28.3 56 13.3 40 40 undefined N/A 29.99 1016 10 16 0.00 0.00
1:53 pm 13:53 Sunny 84 28.9 56 13.3 38 38 VRB 5 7 29.98 1015 10 16 0.00 0.00
2:53 pm 14:53 Sunny 86 30 57 13.9 37 37 undefined N/A 29.97 1015 10 16 0.00 0.00
3:53 pm 15:53 Sunny 85 29.4 56 13.3 37 37 Calm 29.96 1015 10 16 0.00 0.00
4:53 pm 16:53 Sunny 87 30.6 56 13.3 35 35 ENE 8 13 29.95 1014 10 16 0.00 0.00
5:53 pm 17:53 Sunny 86 30 56 13.3 36 36 NE 5 7 29.93 1014 10 16 0.00 0.00
6:53 pm 18:53 Sunny 85 29.4 55 12.8 36 36 Calm 29.91 1013 10 16 0.00 0.00
7:53 pm 19:53 Sunny 83 28.3 57 13.9 41 41 NW 6 9 29.91 1013 10 16 0.00 0.00
8:53 pm 20:53 Sunny 79 26.1 59 15 50 50 Calm 29.91 1013 10 16 0.00 0.00
9:53 pm 21:53 Clear 77 25 60 15.6 56 56 Calm 29.92 1013 10 16 0.00 0.00
10:53 pm 22:53 Clear 73 22.8 61 16.1 66 66 Calm 29.92 1013 10 16 0.00 0.00
11:53 pm 23:53 Clear 71 21.7 61 16.1 71 71 Calm 29.92 1013 10 16 0.00 0.00

Powered by AerisWeather